Tabellarische Ansicht des 10.3.2023


Die einzelnen Werte des Tages

Uhrzeit Temperatur Luftdruck Luftfeuchte Wind Hi-Wind Taupunkt THW Index Wind Chill Heat Index Solar- strahlung Regen

00:00

0.8 C

988.7 hpa

94 %

4.8 km/h aus 114

12.9 km/h aus NNE

0.0 C

-0.6 C

-0.6 C

0.8 C

0 W/m

0.00 mm

00:05

0.8 C

988.7 hpa

94 %

1.6 km/h aus 114

12.9 km/h aus NNE

0.0 C

0.8 C

0.8 C

0.8 C

0 W/m

0.00 mm

00:10

0.8 C

988.7 hpa

94 %

3.2 km/h aus 117

9.7 km/h aus N

0.0 C

0.3 C

0.3 C

0.8 C

0 W/m

0.25 mm

00:15

0.8 C

988.4 hpa

94 %

4.8 km/h aus 116

11.3 km/h aus NE

0.0 C

-0.6 C

-0.6 C

0.8 C

0 W/m

0.00 mm

00:20

0.8 C

988.4 hpa

94 %

6.4 km/h aus 117

16.1 km/h aus NE

0.0 C

-1.3 C

-1.2 C

0.8 C

0 W/m

0.00 mm

00:25

0.8 C

988.4 hpa

94 %

4.8 km/h aus 117

16.1 km/h aus NNE

0.0 C

-0.6 C

-0.6 C

0.8 C

0 W/m

0.00 mm

00:30

0.8 C

987.9 hpa

94 %

3.2 km/h aus 117

11.3 km/h aus NNE

0.0 C

0.3 C

0.3 C

0.8 C

0 W/m

0.00 mm

00:35

0.9 C

987.9 hpa

94 %

6.4 km/h aus 114

16.1 km/h aus NNE

0.0 C

-1.2 C

-1.2 C

0.8 C

0 W/m

0.25 mm

00:40

0.9 C

987.9 hpa

94 %

3.2 km/h aus 114

11.3 km/h aus NNE

0.0 C

0.3 C

0.4 C

0.8 C

0 W/m

0.25 mm

00:45

0.9 C

987.5 hpa

94 %

3.2 km/h aus 116

9.7 km/h aus NNE

0.0 C

0.3 C

0.4 C

0.8 C

0 W/m

0.25 mm

00:50

0.9 C

987.5 hpa

94 %

4.8 km/h aus 117

9.7 km/h aus ENE

0.0 C

-0.6 C

-0.5 C

0.8 C

0 W/m

0.00 mm

00:55

0.9 C

987.5 hpa

94 %

4.8 km/h aus 117

16.1 km/h aus NE

0.1 C

-0.5 C

-0.4 C

0.9 C

0 W/m

0.25 mm

01:00

0.9 C

987.3 hpa

94 %

4.8 km/h aus 117

11.3 km/h aus N

0.0 C

-0.6 C

-0.5 C

0.8 C

0 W/m

0.00 mm

01:05

0.9 C

987.3 hpa

94 %

6.4 km/h aus 116

17.7 km/h aus NNE

0.1 C

-1.2 C

-1.1 C

0.9 C

0 W/m

0.25 mm

01:10

0.9 C

987.3 hpa

94 %

8.0 km/h aus 114

16.1 km/h aus NNE

0.1 C

-1.7 C

-1.6 C

0.9 C

0 W/m

0.00 mm

01:15

0.9 C

987.0 hpa

94 %

4.8 km/h aus 115

11.3 km/h aus NNE

0.1 C

-0.5 C

-0.4 C

0.9 C

0 W/m

0.00 mm

01:20

0.9 C

987.0 hpa

94 %

1.6 km/h aus 116

9.7 km/h aus NNE

0.1 C

0.9 C

0.9 C

0.9 C

0 W/m

0.25 mm

01:25

0.9 C

987.0 hpa

94 %

3.2 km/h aus 117

14.5 km/h aus NE

0.1 C

0.4 C

0.4 C

0.9 C

0 W/m

0.25 mm

01:30

0.9 C

986.5 hpa

94 %

8.0 km/h aus 117

17.7 km/h aus NNE

0.1 C

-1.7 C

-1.6 C

0.9 C

0 W/m

0.25 mm

01:35

0.9 C

986.5 hpa

94 %

6.4 km/h aus 117

20.9 km/h aus NE

0.1 C

-1.2 C

-1.1 C

0.9 C

0 W/m

0.00 mm

01:40

0.9 C

986.5 hpa

94 %

6.4 km/h aus 116

11.3 km/h aus NE

0.1 C

-1.2 C

-1.1 C

0.9 C

0 W/m

0.25 mm

01:45

0.9 C

986.0 hpa

94 %

6.4 km/h aus 115

14.5 km/h aus NNE

0.1 C

-1.2 C

-1.1 C

0.9 C

0 W/m

0.25 mm

01:50

0.9 C

986.0 hpa

94 %

4.8 km/h aus 114

12.9 km/h aus NNE

0.1 C

-0.5 C

-0.4 C

0.9 C

0 W/m

0.00 mm

01:55

1.0 C

986.0 hpa

94 %

4.8 km/h aus 117

16.1 km/h aus NE

0.1 C

-0.4 C

-0.3 C

0.9 C

0 W/m

0.25 mm

02:00

1.0 C

985.8 hpa

94 %

4.8 km/h aus 117

14.5 km/h aus NNE

0.1 C

-0.4 C

-0.3 C

0.9 C

0 W/m

0.00 mm

02:05

1.0 C

985.8 hpa

95 %

4.8 km/h aus 116

9.7 km/h aus NE

0.3 C

-0.4 C

-0.3 C

0.9 C

0 W/m

0.25 mm

02:10

1.0 C

985.8 hpa

95 %

4.8 km/h aus 116

11.3 km/h aus NE

0.3 C

-0.4 C

-0.3 C

0.9 C

0 W/m

0.25 mm

02:15

1.0 C

985.4 hpa

95 %

1.6 km/h aus 117

11.3 km/h aus NE

0.3 C

0.9 C

1.0 C

0.9 C

0 W/m

0.25 mm

02:20

1.0 C

985.4 hpa

94 %

4.8 km/h aus 115

11.3 km/h aus NNE

0.1 C

-0.4 C

-0.3 C

0.9 C

0 W/m

0.25 mm

02:25

1.1 C

985.4 hpa

94 %

1.6 km/h aus 114

6.4 km/h aus NNE

0.2 C

1.0 C

1.1 C

1.0 C

0 W/m

0.00 mm

02:30

1.0 C

984.9 hpa

94 %

0.0 km/h aus 116

4.8 km/h aus N

0.1 C

0.9 C

1.0 C

0.9 C

0 W/m

0.00 mm

02:35

1.1 C

984.9 hpa

95 %

1.6 km/h aus 117

8.0 km/h aus N

0.3 C

1.0 C

1.1 C

1.0 C

0 W/m

0.51 mm

02:40

1.1 C

984.9 hpa

95 %

0.0 km/h aus 117

6.4 km/h aus NE

0.3 C

1.0 C

1.1 C

1.0 C

0 W/m

0.25 mm

02:45

1.1 C

984.5 hpa

95 %

0.0 km/h aus 117

6.4 km/h aus NE

0.4 C

1.1 C

1.1 C

1.1 C

0 W/m

0.00 mm

02:50

1.1 C

984.5 hpa

95 %

1.6 km/h aus 117

8.0 km/h aus NE

0.4 C

1.1 C

1.1 C

1.1 C

0 W/m

0.25 mm

02:55

1.1 C

984.5 hpa

95 %

1.6 km/h aus 116

9.7 km/h aus N

0.4 C

1.1 C

1.1 C

1.1 C

0 W/m

0.25 mm

03:00

1.2 C

984.3 hpa

95 %

0.0 km/h aus 115

0.0 km/h aus ---

0.5 C

1.1 C

1.2 C

1.1 C

0 W/m

0.25 mm

03:05

1.2 C

984.3 hpa

95 %

1.6 km/h aus 115

8.0 km/h aus N

0.5 C

1.1 C

1.2 C

1.1 C

0 W/m

0.00 mm

03:10

1.2 C

984.3 hpa

95 %

0.0 km/h aus 117

8.0 km/h aus N

0.5 C

1.1 C

1.2 C

1.1 C

0 W/m

0.51 mm

03:15

1.2 C

983.8 hpa

95 %

1.6 km/h aus 117

8.0 km/h aus N

0.5 C

1.2 C

1.2 C

1.2 C

0 W/m

0.76 mm

03:20

1.3 C

983.8 hpa

95 %

1.6 km/h aus 117

8.0 km/h aus N

0.6 C

1.2 C

1.3 C

1.2 C

0 W/m

0.51 mm

03:25

1.3 C

983.8 hpa

95 %

1.6 km/h aus 117

9.7 km/h aus NE

0.6 C

1.2 C

1.3 C

1.2 C

0 W/m

0.51 mm

03:30

1.3 C

983.2 hpa

95 %

1.6 km/h aus 116

6.4 km/h aus NE

0.6 C

1.2 C

1.3 C

1.2 C

0 W/m

0.51 mm

03:35

1.3 C

983.2 hpa

95 %

3.2 km/h aus 114

9.7 km/h aus W

0.6 C

0.8 C

0.9 C

1.3 C

0 W/m

0.76 mm

03:40

1.4 C

983.2 hpa

95 %

0.0 km/h aus 116

3.2 km/h aus W

0.7 C

1.4 C

1.4 C

1.4 C

0 W/m

0.51 mm

03:45

1.4 C

983.1 hpa

95 %

4.8 km/h aus 117

11.3 km/h aus W

0.7 C

0.1 C

0.1 C

1.4 C

0 W/m

0.51 mm

03:50

1.4 C

983.1 hpa

95 %

4.8 km/h aus 116

16.1 km/h aus NNE

0.7 C

0.1 C

0.1 C

1.4 C

0 W/m

0.25 mm

03:55

1.4 C

983.1 hpa

95 %

4.8 km/h aus 116

11.3 km/h aus NNE

0.7 C

0.2 C

0.2 C

1.4 C

0 W/m

0.00 mm

04:00

1.4 C

982.9 hpa

95 %

0.0 km/h aus 116

4.8 km/h aus NW

0.7 C

1.4 C

1.4 C

1.4 C

0 W/m

0.25 mm

04:05

1.4 C

982.9 hpa

95 %

1.6 km/h aus 117

9.7 km/h aus N

0.7 C

1.4 C

1.4 C

1.4 C

0 W/m

0.25 mm

04:10

1.4 C

982.9 hpa

95 %

6.4 km/h aus 114

17.7 km/h aus N

0.7 C

-0.5 C

-0.5 C

1.4 C

0 W/m

0.25 mm

04:15

1.4 C

982.6 hpa

95 %

0.0 km/h aus 114

8.0 km/h aus N

0.7 C

1.4 C

1.4 C

1.4 C

0 W/m

0.25 mm

04:20

1.4 C

982.6 hpa

95 %

1.6 km/h aus 117

6.4 km/h aus NNE

0.7 C

1.4 C

1.4 C

1.4 C

0 W/m

0.00 mm

04:25

1.4 C

982.6 hpa

95 %

1.6 km/h aus 117

8.0 km/h aus N

0.7 C

1.4 C

1.4 C

1.4 C

0 W/m

0.25 mm

04:30

1.4 C

982.6 hpa

95 %

0.0 km/h aus 117

3.2 km/h aus N

0.7 C

1.4 C

1.4 C

1.4 C

0 W/m

0.25 mm

04:35

1.4 C

982.6 hpa

95 %

0.0 km/h aus 117

0.0 km/h aus ---

0.7 C

1.4 C

1.4 C

1.4 C

0 W/m

0.25 mm

04:40

1.4 C

982.6 hpa

95 %

0.0 km/h aus 114

0.0 km/h aus ---

0.7 C

1.4 C

1.4 C

1.4 C

0 W/m

0.25 mm

04:45

1.4 C

982.8 hpa

95 %

1.6 km/h aus 114

6.4 km/h aus W

0.7 C

1.4 C

1.4 C

1.4 C

0 W/m

0.25 mm

04:50

1.4 C

982.8 hpa

95 %

0.0 km/h aus 115

3.2 km/h aus WSW

0.7 C

1.4 C

1.4 C

1.4 C

0 W/m

0.25 mm

04:55

1.4 C

982.8 hpa

95 %

1.6 km/h aus 117

11.3 km/h aus WSW

0.7 C

1.4 C

1.4 C

1.4 C

0 W/m

0.00 mm

05:00

1.4 C

983.0 hpa

95 %

0.0 km/h aus 116

0.0 km/h aus ---

0.7 C

1.4 C

1.4 C

1.4 C

0 W/m

0.00 mm

05:05

1.4 C

983.0 hpa

95 %

0.0 km/h aus 116

0.0 km/h aus ---

0.7 C

1.4 C

1.4 C

1.4 C

0 W/m

0.00 mm

05:10

1.4 C

983.0 hpa

95 %

1.6 km/h aus 118

8.0 km/h aus WNW

0.7 C

1.4 C

1.4 C

1.4 C

0 W/m

0.00 mm

05:15

1.4 C

983.3 hpa

95 %

1.6 km/h aus 116

8.0 km/h aus WNW

0.7 C

1.4 C

1.4 C

1.4 C

0 W/m

0.00 mm

05:20

1.4 C

983.3 hpa

95 %

0.0 km/h aus 114

0.0 km/h aus ---

0.7 C

1.4 C

1.4 C

1.4 C

0 W/m

0.00 mm

05:25

1.4 C

983.3 hpa

95 %

0.0 km/h aus 116

0.0 km/h aus ---

0.7 C

1.4 C

1.4 C

1.4 C

0 W/m

0.00 mm

05:30

1.4 C

983.8 hpa

95 %

0.0 km/h aus 116

3.2 km/h aus W

0.7 C

1.4 C

1.4 C

1.4 C

0 W/m

0.00 mm

05:35

1.4 C

983.8 hpa

95 %

0.0 km/h aus 117

0.0 km/h aus ---

0.7 C

1.4 C

1.4 C

1.4 C

0 W/m

0.00 mm

05:40

1.4 C

983.8 hpa

95 %

0.0 km/h aus 117

4.8 km/h aus W

0.7 C

1.4 C

1.4 C

1.4 C

0 W/m

0.00 mm

05:45

1.4 C

983.8 hpa

95 %

0.0 km/h aus 117

0.0 km/h aus ---

0.7 C

1.4 C

1.4 C

1.4 C

0 W/m

0.00 mm

05:50

1.4 C

983.8 hpa

95 %

0.0 km/h aus 115

0.0 km/h aus ---

0.7 C

1.4 C

1.4 C

1.4 C

0 W/m

0.00 mm

05:55

1.4 C

983.8 hpa

95 %

0.0 km/h aus 114

0.0 km/h aus ---

0.7 C

1.4 C

1.4 C

1.4 C

0 W/m

0.00 mm

06:00

1.4 C

983.8 hpa

95 %

0.0 km/h aus 116

0.0 km/h aus ---

0.7 C

1.4 C

1.4 C

1.4 C

0 W/m

0.00 mm

06:05

1.4 C

983.8 hpa

95 %

0.0 km/h aus 117

0.0 km/h aus ---

0.7 C

1.4 C

1.4 C

1.4 C

0 W/m

0.00 mm

06:10

1.4 C

983.8 hpa

95 %

0.0 km/h aus 117

0.0 km/h aus ---

0.7 C

1.4 C

1.4 C

1.4 C

0 W/m

0.00 mm

06:15

1.3 C

983.9 hpa

95 %

0.0 km/h aus 118

0.0 km/h aus ---

0.6 C

1.3 C

1.3 C

1.3 C

0 W/m

0.00 mm

06:20

1.3 C

983.9 hpa

95 %

0.0 km/h aus 117

0.0 km/h aus ---

0.6 C

1.3 C

1.3 C

1.3 C

0 W/m

0.00 mm

06:25

1.3 C

983.9 hpa

95 %

0.0 km/h aus 113

0.0 km/h aus ---

0.6 C

1.3 C

1.3 C

1.3 C

0 W/m

0.00 mm

06:30

1.3 C

984.0 hpa

95 %

0.0 km/h aus 115

0.0 km/h aus ---

0.6 C

1.3 C

1.3 C

1.3 C

0 W/m

0.00 mm

06:35

1.3 C

984.0 hpa

95 %

0.0 km/h aus 116

0.0 km/h aus ---

0.6 C

1.3 C

1.3 C

1.3 C

0 W/m

0.00 mm

06:40

1.3 C

984.0 hpa

95 %

0.0 km/h aus 116

0.0 km/h aus ---

0.6 C

1.3 C

1.3 C

1.3 C

0 W/m

0.00 mm

06:45

1.3 C

984.1 hpa

95 %

0.0 km/h aus 117

0.0 km/h aus ---

0.6 C

1.3 C

1.3 C

1.3 C

0 W/m

0.00 mm

06:50

1.3 C

984.1 hpa

95 %

0.0 km/h aus 116

0.0 km/h aus ---

0.6 C

1.3 C

1.3 C

1.3 C

0 W/m

0.00 mm

06:55

1.3 C

984.1 hpa

95 %

0.0 km/h aus 116

0.0 km/h aus ---

0.6 C

1.3 C

1.3 C

1.3 C

0 W/m

0.00 mm

07:00

1.3 C

984.3 hpa

95 %

0.0 km/h aus 115

0.0 km/h aus ---

0.6 C

1.3 C

1.3 C

1.3 C

0 W/m

0.00 mm

07:05

1.3 C

984.3 hpa

95 %

0.0 km/h aus 114

0.0 km/h aus ---

0.6 C

1.2 C

1.3 C

1.2 C

0 W/m

0.00 mm

07:10

1.3 C

984.3 hpa

95 %

0.0 km/h aus 117

0.0 km/h aus ---

0.6 C

1.2 C

1.3 C

1.2 C

3 W/m

0.00 mm

07:15

1.3 C

984.4 hpa

95 %

1.6 km/h aus 117

8.0 km/h aus NW

0.6 C

1.2 C

1.3 C

1.2 C

9 W/m

0.00 mm

07:20

1.3 C

984.4 hpa

95 %

0.0 km/h aus 117

0.0 km/h aus ---

0.6 C

1.2 C

1.3 C

1.2 C

7 W/m

0.25 mm

07:25

1.3 C

984.4 hpa

95 %

0.0 km/h aus 117

0.0 km/h aus ---

0.6 C

1.2 C

1.3 C

1.2 C

8 W/m

0.00 mm

07:30

1.3 C

984.4 hpa

95 %

0.0 km/h aus 117

0.0 km/h aus ---

0.6 C

1.2 C

1.3 C

1.2 C

10 W/m

0.00 mm

07:35

1.3 C

984.4 hpa

95 %

0.0 km/h aus 113

0.0 km/h aus ---

0.6 C

1.2 C

1.3 C

1.2 C

12 W/m

0.00 mm

07:40

1.3 C

984.4 hpa

95 %

0.0 km/h aus 115

0.0 km/h aus ---

0.6 C

1.2 C

1.3 C

1.2 C

14 W/m

0.51 mm

07:45

1.3 C

984.4 hpa

95 %

0.0 km/h aus 116

0.0 km/h aus ---

0.6 C

1.2 C

1.3 C

1.2 C

13 W/m

0.25 mm

07:50

1.3 C

984.4 hpa

95 %

0.0 km/h aus 117

0.0 km/h aus ---

0.6 C

1.3 C

1.3 C

1.3 C

26 W/m

0.25 mm

07:55

1.3 C

984.4 hpa

95 %

0.0 km/h aus 116

0.0 km/h aus ---

0.6 C

1.3 C

1.3 C

1.3 C

41 W/m

0.25 mm

08:00

1.3 C

984.6 hpa

95 %

0.0 km/h aus 117

0.0 km/h aus ---

0.6 C

1.3 C

1.3 C

1.3 C

21 W/m

0.51 mm

08:05

1.4 C

984.6 hpa

95 %

0.0 km/h aus 117

0.0 km/h aus ---

0.7 C

1.4 C

1.4 C

1.4 C

38 W/m

0.00 mm

08:10

1.4 C

984.6 hpa

95 %

0.0 km/h aus 112

3.2 km/h aus NW

0.7 C

1.4 C

1.4 C

1.4 C

48 W/m

0.00 mm

08:15

1.4 C

984.6 hpa

95 %

0.0 km/h aus 115

6.4 km/h aus NW

0.7 C

1.4 C

1.4 C

1.4 C

27 W/m

0.00 mm

08:20

1.5 C

984.6 hpa

95 %

0.0 km/h aus 116

0.0 km/h aus ---

0.8 C

1.5 C

1.5 C

1.5 C

18 W/m

0.00 mm

08:25

1.5 C

984.6 hpa

95 %

0.0 km/h aus 117

0.0 km/h aus ---

0.8 C

1.5 C

1.5 C

1.5 C

27 W/m

0.00 mm

08:30

1.5 C

984.9 hpa

95 %

0.0 km/h aus 117

0.0 km/h aus ---

0.8 C

1.5 C

1.5 C

1.5 C

34 W/m

0.00 mm

08:35

1.5 C

984.9 hpa

95 %

0.0 km/h aus 117

0.0 km/h aus ---

0.8 C

1.5 C

1.5 C

1.5 C

63 W/m

0.25 mm

08:40

1.6 C

984.9 hpa

95 %

0.0 km/h aus 115

0.0 km/h aus ---

0.8 C

1.6 C

1.6 C

1.6 C

51 W/m

0.51 mm

08:45

1.6 C

984.9 hpa

95 %

0.0 km/h aus 114

0.0 km/h aus ---

0.9 C

1.6 C

1.6 C

1.6 C

69 W/m

0.25 mm

08:50

1.7 C

984.9 hpa

95 %

1.6 km/h aus 116

6.4 km/h aus NNW

1.0 C

1.7 C

1.7 C

1.7 C

107 W/m

0.00 mm

08:55

1.9 C

984.9 hpa

96 %

3.2 km/h aus 117

4.8 km/h aus NNW

1.4 C

1.6 C

1.6 C

1.9 C

113 W/m

0.00 mm

09:00

2.0 C

985.0 hpa

95 %

0.0 km/h aus 115

1.6 km/h aus NNW

1.3 C

2.0 C

2.0 C

2.0 C

71 W/m

0.00 mm

09:05

2.1 C

985.0 hpa

95 %

0.0 km/h aus 117

0.0 km/h aus ---

1.3 C

2.1 C

2.1 C

2.1 C

66 W/m

0.00 mm

09:10

2.1 C

985.0 hpa

95 %

0.0 km/h aus 117

0.0 km/h aus ---

1.3 C

2.1 C

2.1 C

2.1 C

64 W/m

0.00 mm

09:15

2.1 C

985.1 hpa

95 %

1.6 km/h aus 115

8.0 km/h aus NNW

1.3 C

2.1 C

2.1 C

2.1 C

58 W/m

0.25 mm

09:20

2.0 C

985.1 hpa

95 %

0.0 km/h aus 114

4.8 km/h aus NNW

1.3 C

2.0 C

2.0 C

2.0 C

79 W/m

0.00 mm

09:25

2.1 C

985.1 hpa

95 %

1.6 km/h aus 116

6.4 km/h aus NNW

1.3 C

2.1 C

2.1 C

2.1 C

66 W/m

0.25 mm

09:30

2.1 C

985.1 hpa

95 %

1.6 km/h aus 117

8.0 km/h aus N

1.3 C

2.1 C

2.1 C

2.1 C

65 W/m

0.00 mm

09:35

2.1 C

985.1 hpa

95 %

0.0 km/h aus 116

6.4 km/h aus N

1.3 C

2.1 C

2.1 C

2.1 C

55 W/m

0.00 mm

09:40

2.1 C

985.1 hpa

95 %

0.0 km/h aus 117

6.4 km/h aus N

1.3 C

2.1 C

2.1 C

2.1 C

69 W/m

0.00 mm

09:45

2.1 C

985.3 hpa

95 %

0.0 km/h aus 117

0.0 km/h aus ---

1.4 C

2.1 C

2.1 C

2.1 C

72 W/m

0.00 mm

09:50

2.1 C

985.3 hpa

95 %

0.0 km/h aus 114

0.0 km/h aus ---

1.4 C

2.1 C

2.1 C

2.1 C

46 W/m

0.00 mm

09:55

2.1 C

985.3 hpa

95 %

0.0 km/h aus 115

0.0 km/h aus ---

1.4 C

2.1 C

2.1 C

2.1 C

50 W/m

0.00 mm

10:00

2.2 C

985.4 hpa

95 %

0.0 km/h aus 117

6.4 km/h aus N

1.4 C

2.2 C

2.2 C

2.2 C

57 W/m

0.00 mm

10:05

2.2 C

985.4 hpa

96 %

1.6 km/h aus 117

9.7 km/h aus NNE

1.7 C

2.2 C

2.2 C

2.2 C

78 W/m

0.00 mm

10:10

2.2 C

985.4 hpa

95 %

3.2 km/h aus 117

8.0 km/h aus NNE

1.4 C

1.8 C

1.8 C

2.2 C

79 W/m

0.25 mm

10:15

2.2 C

985.3 hpa

95 %

1.6 km/h aus 117

4.8 km/h aus N

1.4 C

2.2 C

2.2 C

2.2 C

71 W/m

0.00 mm

10:20

2.2 C

985.3 hpa

95 %

1.6 km/h aus 115

8.0 km/h aus N

1.4 C

2.2 C

2.2 C

2.2 C

63 W/m

0.00 mm

10:25

2.2 C

985.3 hpa

95 %

4.8 km/h aus 115

9.7 km/h aus NNE

1.4 C

0.9 C

0.9 C

2.2 C

80 W/m

0.00 mm

10:30

2.2 C

985.4 hpa

95 %

1.6 km/h aus 116

8.0 km/h aus NNE

1.4 C

2.2 C

2.2 C

2.2 C

59 W/m

0.00 mm

10:35

2.2 C

985.4 hpa

96 %

0.0 km/h aus 118

6.4 km/h aus NNE

1.7 C

2.2 C

2.2 C

2.2 C

63 W/m

0.00 mm

10:40

2.2 C

985.4 hpa

95 %

0.0 km/h aus 117

0.0 km/h aus ---

1.5 C

2.2 C

2.2 C

2.2 C

69 W/m

0.25 mm

10:45

2.3 C

985.3 hpa

95 %

1.6 km/h aus 116

8.0 km/h aus NNE

1.6 C

2.3 C

2.3 C

2.3 C

83 W/m

0.00 mm

10:50

2.3 C

985.3 hpa

95 %

1.6 km/h aus 117

8.0 km/h aus NNE

1.6 C

2.3 C

2.3 C

2.3 C

79 W/m

0.00 mm

10:55

2.3 C

985.3 hpa

95 %

1.6 km/h aus 114

9.7 km/h aus NNE

1.6 C

2.3 C

2.3 C

2.3 C

62 W/m

0.25 mm

11:00

2.3 C

985.4 hpa

95 %

1.6 km/h aus 114

9.7 km/h aus N

1.6 C

2.3 C

2.3 C

2.3 C

84 W/m

0.51 mm

11:05

2.4 C

985.4 hpa

95 %

1.6 km/h aus 117

8.0 km/h aus N

1.7 C

2.4 C

2.4 C

2.4 C

139 W/m

0.00 mm

11:10

2.6 C

985.4 hpa

96 %

4.8 km/h aus 116

12.9 km/h aus NNE

2.0 C

1.4 C

1.4 C

2.6 C

145 W/m

0.00 mm

11:15

2.6 C

985.4 hpa

96 %

0.0 km/h aus 117

4.8 km/h aus NNE

2.0 C

2.6 C

2.6 C

2.6 C

76 W/m

0.00 mm

11:20

2.6 C

985.4 hpa

96 %

3.2 km/h aus 117

8.0 km/h aus NNE

2.0 C

2.2 C

2.2 C

2.6 C

89 W/m

0.00 mm

11:25

2.6 C

985.4 hpa

96 %

1.6 km/h aus 116

8.0 km/h aus NNE

2.0 C

2.6 C

2.6 C

2.6 C

74 W/m

0.00 mm

11:30

2.6 C

985.5 hpa

96 %

1.6 km/h aus 113

6.4 km/h aus NNE

2.0 C

2.6 C

2.6 C

2.6 C

70 W/m

0.00 mm

11:35

2.6 C

985.5 hpa

96 %

3.2 km/h aus 116

8.0 km/h aus N

2.0 C

2.2 C

2.2 C

2.6 C

69 W/m

0.25 mm

11:40

2.6 C

985.5 hpa

96 %

4.8 km/h aus 118

11.3 km/h aus NE

2.0 C

1.4 C

1.4 C

2.6 C

86 W/m

0.00 mm

11:45

2.6 C

985.4 hpa

96 %

3.2 km/h aus 116

9.7 km/h aus N

2.0 C

2.3 C

2.3 C

2.6 C

91 W/m

0.00 mm

11:50

2.7 C

985.4 hpa

95 %

4.8 km/h aus 117

11.3 km/h aus NNE

1.9 C

1.5 C

1.5 C

2.7 C

63 W/m

0.00 mm

11:55

2.7 C

985.4 hpa

95 %

0.0 km/h aus 117

8.0 km/h aus NNE

1.9 C

2.7 C

2.7 C

2.7 C

65 W/m

0.00 mm

12:00

2.7 C

985.4 hpa

95 %

3.2 km/h aus 114

11.3 km/h aus NNE

2.0 C

2.4 C

2.4 C

2.7 C

64 W/m

0.25 mm

12:05

2.7 C

985.4 hpa

95 %

1.6 km/h aus 115

11.3 km/h aus NNE

2.0 C

2.7 C

2.7 C

2.7 C

88 W/m

0.00 mm

12:10

2.8 C

985.4 hpa

95 %

1.6 km/h aus 117

9.7 km/h aus N

2.1 C

2.8 C

2.8 C

2.8 C

102 W/m

0.00 mm

12:15

2.8 C

985.4 hpa

95 %

4.8 km/h aus 117

11.3 km/h aus NNE

2.1 C

1.7 C

1.7 C

2.8 C

134 W/m

0.25 mm

12:20

2.9 C

985.4 hpa

96 %

1.6 km/h aus 117

11.3 km/h aus NNE

2.3 C

2.9 C

2.9 C

2.9 C

136 W/m

0.25 mm

12:25

2.9 C

985.4 hpa

96 %

1.6 km/h aus 116

8.0 km/h aus N

2.3 C

2.9 C

2.9 C

2.9 C

120 W/m

0.00 mm

12:30

2.8 C

985.5 hpa

96 %

1.6 km/h aus 115

9.7 km/h aus NNE

2.3 C

2.8 C

2.8 C

2.8 C

115 W/m

0.25 mm

12:35

2.8 C

985.5 hpa

96 %

1.6 km/h aus 114

8.0 km/h aus N

2.3 C

2.8 C

2.8 C

2.8 C

98 W/m

0.00 mm

12:40

2.9 C

985.5 hpa

96 %

3.2 km/h aus 117

8.0 km/h aus NNE

2.4 C

2.7 C

2.7 C

2.9 C

76 W/m

0.25 mm

12:45

3.0 C

985.4 hpa

96 %

0.0 km/h aus 118

0.0 km/h aus ---

2.4 C

3.0 C

3.0 C

3.0 C

51 W/m

0.25 mm

12:50

3.0 C

985.4 hpa

96 %

0.0 km/h aus 117

4.8 km/h aus NNE

2.4 C

3.0 C

3.0 C

3.0 C

48 W/m

0.25 mm

12:55

3.0 C

985.4 hpa

96 %

0.0 km/h aus 116

0.0 km/h aus ---

2.4 C

3.0 C

3.0 C

3.0 C

63 W/m

0.25 mm

13:00

3.0 C

985.1 hpa

95 %

1.6 km/h aus 116

6.4 km/h aus NNE

2.3 C

3.0 C

3.0 C

3.0 C

67 W/m

0.25 mm

13:05

3.0 C

985.1 hpa

96 %

1.6 km/h aus 114

8.0 km/h aus NE

2.4 C

3.0 C

3.0 C

3.0 C

59 W/m

0.25 mm

13:10

3.0 C

985.1 hpa

95 %

0.0 km/h aus 115

6.4 km/h aus NNE

2.3 C

3.0 C

3.0 C

3.0 C

69 W/m

0.00 mm

13:15

3.0 C

985.2 hpa

96 %

4.8 km/h aus 115

9.7 km/h aus NNW

2.4 C

1.9 C

1.9 C

3.0 C

59 W/m

0.25 mm

13:20

3.0 C

985.2 hpa

95 %

0.0 km/h aus 117

8.0 km/h aus N

2.3 C

3.0 C

3.0 C

3.0 C

64 W/m

0.00 mm

13:25

3.1 C

985.2 hpa

96 %

1.6 km/h aus 117

8.0 km/h aus N

2.5 C

3.1 C

3.1 C

3.1 C

76 W/m

0.00 mm

13:30

3.2 C

985.2 hpa

96 %

1.6 km/h aus 115

8.0 km/h aus N

2.6 C

3.2 C

3.2 C

3.2 C

89 W/m

0.00 mm

13:35

3.1 C

985.2 hpa

95 %

1.6 km/h aus 114

9.7 km/h aus NNE

2.4 C

3.1 C

3.1 C

3.1 C

83 W/m

0.00 mm

13:40

3.2 C

985.2 hpa

95 %

1.6 km/h aus 114

8.0 km/h aus N

2.4 C

3.2 C

3.2 C

3.2 C

84 W/m

0.00 mm

13:45

3.1 C

985.3 hpa

95 %

4.8 km/h aus 117

14.5 km/h aus NNE

2.4 C

2.1 C

2.1 C

3.1 C

112 W/m

0.00 mm

13:50

3.4 C

985.3 hpa

96 %

1.6 km/h aus 118

9.7 km/h aus NNE

2.8 C

3.4 C

3.4 C

3.4 C

164 W/m

0.00 mm

13:55

3.3 C

985.3 hpa

96 %

1.6 km/h aus 115

11.3 km/h aus N

2.8 C

3.3 C

3.3 C

3.3 C

98 W/m

0.00 mm

14:00

3.4 C

985.0 hpa

96 %

4.8 km/h aus 116

11.3 km/h aus NNE

2.8 C

2.3 C

2.3 C

3.4 C

96 W/m

0.00 mm

14:05

3.3 C

985.0 hpa

96 %

6.4 km/h aus 116

14.5 km/h aus N

2.7 C

1.6 C

1.6 C

3.3 C

92 W/m

0.00 mm

14:10

3.3 C

985.0 hpa

96 %

6.4 km/h aus 112

16.1 km/h aus NNE

2.7 C

1.6 C

1.6 C

3.3 C

84 W/m

0.00 mm

14:15

3.2 C

984.9 hpa

96 %

4.8 km/h aus 115

14.5 km/h aus NNE

2.6 C

2.2 C

2.2 C

3.2 C

76 W/m

0.00 mm

14:20

3.3 C

984.9 hpa

96 %

6.4 km/h aus 117

14.5 km/h aus NNE

2.7 C

1.6 C

1.6 C

3.3 C

91 W/m

0.00 mm

14:25

3.3 C

984.9 hpa

96 %

6.4 km/h aus 117

16.1 km/h aus NE

2.7 C

1.6 C

1.6 C

3.3 C

91 W/m

0.00 mm

14:30

3.3 C

984.9 hpa

96 %

3.2 km/h aus 117

12.9 km/h aus NNE

2.7 C

3.1 C

3.1 C

3.3 C

72 W/m

0.00 mm

14:35

3.3 C

984.9 hpa

96 %

1.6 km/h aus 116

8.0 km/h aus NNE

2.8 C

3.3 C

3.3 C

3.3 C

56 W/m

0.00 mm

14:40

3.3 C

984.9 hpa

96 %

1.6 km/h aus 113

14.5 km/h aus NNE

2.8 C

3.3 C

3.3 C

3.3 C

34 W/m

0.00 mm

14:45

3.3 C

984.9 hpa

96 %

1.6 km/h aus 116

8.0 km/h aus N

2.8 C

3.3 C

3.3 C

3.3 C

42 W/m

0.00 mm

14:50

3.3 C

984.9 hpa

96 %

4.8 km/h aus 117

11.3 km/h aus N

2.8 C

2.3 C

2.3 C

3.3 C

61 W/m

0.00 mm

14:55

3.3 C

984.9 hpa

96 %

1.6 km/h aus 118

9.7 km/h aus NNE

2.8 C

3.3 C

3.3 C

3.3 C

68 W/m

0.00 mm

15:00

3.4 C

984.9 hpa

96 %

3.2 km/h aus 117

11.3 km/h aus ENE

2.8 C

3.2 C

3.2 C

3.4 C

82 W/m

0.00 mm

15:05

3.3 C

984.9 hpa

95 %

3.2 km/h aus 117

14.5 km/h aus NE

2.6 C

3.1 C

3.1 C

3.3 C

81 W/m

0.00 mm

15:10

3.4 C

984.9 hpa

96 %

3.2 km/h aus 114

9.7 km/h aus N

2.8 C

3.2 C

3.2 C

3.4 C

88 W/m

0.00 mm

15:15

3.5 C

984.9 hpa

96 %

3.2 km/h aus 114

11.3 km/h aus NNE

2.9 C

3.3 C

3.3 C

3.5 C

126 W/m

0.00 mm

15:20

3.5 C

984.9 hpa

95 %

3.2 km/h aus 116

11.3 km/h aus NNE

2.8 C

3.3 C

3.3 C

3.5 C

125 W/m

0.00 mm

15:25

3.5 C

984.9 hpa

96 %

6.4 km/h aus 116

20.9 km/h aus NNE

2.9 C

1.9 C

1.9 C

3.5 C

135 W/m

0.00 mm

15:30

3.4 C

984.7 hpa

96 %

11.3 km/h aus 117

22.5 km/h aus NNE

2.8 C

0.4 C

0.4 C

3.4 C

132 W/m

0.00 mm

15:35

3.3 C

984.7 hpa

95 %

9.7 km/h aus 116

16.1 km/h aus NNE

2.6 C

0.8 C

0.8 C

3.3 C

131 W/m

0.00 mm

15:40

3.4 C

984.7 hpa

95 %

6.4 km/h aus 115

20.9 km/h aus NNE

2.7 C

1.7 C

1.7 C

3.4 C

110 W/m

0.00 mm

15:45

3.4 C

984.6 hpa

96 %

6.4 km/h aus 113

16.1 km/h aus ENE

2.9 C

1.8 C

1.8 C

3.4 C

73 W/m

0.00 mm

15:50

3.4 C

984.6 hpa

96 %

3.2 km/h aus 117

14.5 km/h aus ENE

2.9 C

3.2 C

3.2 C

3.4 C

56 W/m

0.00 mm

15:55

3.5 C

984.6 hpa

96 %

4.8 km/h aus 117

17.7 km/h aus NE

2.9 C

2.4 C

2.4 C

3.5 C

56 W/m

0.00 mm

16:00

3.5 C

984.4 hpa

96 %

6.4 km/h aus 118

17.7 km/h aus NNE

2.9 C

1.9 C

1.9 C

3.5 C

57 W/m

0.00 mm

16:05

3.4 C

984.4 hpa

95 %

6.4 km/h aus 116

19.3 km/h aus NNE

2.7 C

1.8 C

1.8 C

3.4 C

62 W/m

0.00 mm

16:10

3.4 C

984.4 hpa

95 %

8.0 km/h aus 116

22.5 km/h aus NNE

2.7 C

1.2 C

1.2 C

3.4 C

69 W/m

0.00 mm

16:15

3.4 C

984.4 hpa

96 %

4.8 km/h aus 114

9.7 km/h aus N

2.9 C

2.4 C

2.4 C

3.4 C

62 W/m

0.00 mm

16:20

3.4 C

984.4 hpa

95 %

3.2 km/h aus 116

16.1 km/h aus NNE

2.7 C

3.2 C

3.2 C

3.4 C

50 W/m

0.00 mm

16:25

3.4 C

984.4 hpa

95 %

8.0 km/h aus 117

20.9 km/h aus NNE

2.7 C

1.2 C

1.2 C

3.4 C

56 W/m

0.00 mm

16:30

3.3 C

984.3 hpa

95 %

8.0 km/h aus 117

24.1 km/h aus N

2.6 C

1.2 C

1.2 C

3.3 C

56 W/m

0.00 mm

16:35

3.3 C

984.3 hpa

95 %

8.0 km/h aus 117

19.3 km/h aus N

2.6 C

1.1 C

1.1 C

3.3 C

48 W/m

0.00 mm

16:40

3.3 C

984.3 hpa

95 %

8.0 km/h aus 116

19.3 km/h aus NE

2.6 C

1.1 C

1.1 C

3.3 C

36 W/m

0.00 mm

16:45

3.2 C

984.6 hpa

95 %

6.4 km/h aus 114

17.7 km/h aus NNE

2.5 C

1.6 C

1.6 C

3.2 C

14 W/m

0.00 mm

16:50

3.2 C

984.6 hpa

95 %

1.6 km/h aus 116

6.4 km/h aus NNE

2.4 C

3.2 C

3.2 C

3.2 C

5 W/m

0.00 mm

16:55

3.1 C

984.6 hpa

95 %

6.4 km/h aus 117

11.3 km/h aus SSW

2.4 C

1.4 C

1.4 C

3.1 C

6 W/m

1.02 mm

17:00

3.1 C

984.5 hpa

95 %

6.4 km/h aus 116

17.7 km/h aus N

2.3 C

1.3 C

1.3 C

3.1 C

11 W/m

0.51 mm

17:05

3.0 C

984.5 hpa

95 %

3.2 km/h aus 118

17.7 km/h aus NNE

2.3 C

2.7 C

2.7 C

3.0 C

16 W/m

0.51 mm

17:10

2.9 C

984.5 hpa

95 %

4.8 km/h aus 117

16.1 km/h aus NNE

2.2 C

1.8 C

1.8 C

2.9 C

23 W/m

0.25 mm

17:15

2.9 C

984.4 hpa

95 %

4.8 km/h aus 115

17.7 km/h aus N

2.2 C

1.8 C

1.8 C

2.9 C

19 W/m

0.25 mm

17:20

2.9 C

984.4 hpa

95 %

4.8 km/h aus 114

11.3 km/h aus NW

2.2 C

1.8 C

1.8 C

2.9 C

10 W/m

0.00 mm

17:25

2.9 C

984.4 hpa

95 %

9.7 km/h aus 117

19.3 km/h aus N

2.2 C

0.2 C

0.2 C

2.9 C

8 W/m

0.25 mm

17:30

2.8 C

984.0 hpa

95 %

6.4 km/h aus 117

20.9 km/h aus N

2.1 C

1.1 C

1.1 C

2.8 C

10 W/m

0.51 mm

17:35

2.8 C

984.0 hpa

95 %

8.0 km/h aus 117

20.9 km/h aus N

2.1 C

0.5 C

0.5 C

2.8 C

17 W/m

0.00 mm

17:40

2.8 C

984.0 hpa

95 %

6.4 km/h aus 117

17.7 km/h aus N

2.1 C

1.1 C

1.1 C

2.8 C

15 W/m

0.00 mm

17:45

2.7 C

984.2 hpa

95 %

8.0 km/h aus 115

20.9 km/h aus NNE

2.0 C

0.4 C

0.4 C

2.7 C

11 W/m

0.00 mm

17:50

2.7 C

984.2 hpa

95 %

9.7 km/h aus 113

20.9 km/h aus N

2.0 C

0.1 C

0.1 C

2.7 C

5 W/m

0.00 mm

17:55

2.7 C

984.2 hpa

95 %

4.8 km/h aus 115

19.3 km/h aus N

1.9 C

1.5 C

1.5 C

2.7 C

0 W/m

0.25 mm

18:00

2.7 C

984.7 hpa

95 %

1.6 km/h aus 117

17.7 km/h aus N

1.9 C

2.7 C

2.7 C

2.7 C

0 W/m

0.25 mm

18:05

2.6 C

984.7 hpa

95 %

3.2 km/h aus 116

9.7 km/h aus N

1.9 C

2.3 C

2.3 C

2.6 C

0 W/m

0.51 mm

18:10

2.6 C

984.7 hpa

95 %

0.0 km/h aus 116

8.0 km/h aus NNW

1.9 C

2.6 C

2.6 C

2.6 C

0 W/m

0.25 mm

18:15

2.6 C

984.9 hpa

95 %

1.6 km/h aus 116

14.5 km/h aus N

1.8 C

2.6 C

2.6 C

2.6 C

0 W/m

0.51 mm

18:20

2.6 C

984.9 hpa

95 %

6.4 km/h aus 115

16.1 km/h aus N

1.8 C

0.8 C

0.8 C

2.6 C

0 W/m

0.51 mm

18:25

2.5 C

984.9 hpa

95 %

6.4 km/h aus 115

17.7 km/h aus N

1.8 C

0.7 C

0.7 C

2.5 C

0 W/m

0.51 mm

18:30

2.4 C

984.7 hpa

95 %

6.4 km/h aus 115

17.7 km/h aus N

1.7 C

0.6 C

0.6 C

2.4 C

0 W/m

0.25 mm

18:35

2.3 C

984.7 hpa

95 %

9.7 km/h aus 116

20.9 km/h aus N

1.6 C

-0.4 C

-0.4 C

2.3 C

0 W/m

0.25 mm

18:40

2.2 C

984.7 hpa

95 %

8.0 km/h aus 115

20.9 km/h aus NW

1.5 C

-0.1 C

-0.1 C

2.2 C

0 W/m

0.25 mm

18:45

2.1 C

984.8 hpa

95 %

8.0 km/h aus 116

17.7 km/h aus N

1.4 C

-0.3 C

-0.3 C

2.1 C

0 W/m

0.51 mm

18:50

2.0 C

984.8 hpa

95 %

4.8 km/h aus 116

19.3 km/h aus N

1.3 C

0.8 C

0.8 C

2.0 C

0 W/m

0.51 mm

18:55

1.9 C

984.8 hpa

95 %

4.8 km/h aus 115

11.3 km/h aus NNE

1.2 C

0.7 C

0.7 C

1.9 C

0 W/m

0.00 mm

19:00

1.8 C

984.9 hpa

95 %

9.7 km/h aus 112

20.9 km/h aus N

1.1 C

-1.1 C

-1.1 C

1.8 C

0 W/m

0.25 mm

19:05

1.6 C

984.9 hpa

95 %

11.3 km/h aus 116

24.1 km/h aus NNW

0.9 C

-1.7 C

-1.7 C

1.6 C

0 W/m

0.00 mm

19:10

1.4 C

984.9 hpa

95 %

9.7 km/h aus 117

16.1 km/h aus NW

0.7 C

-1.5 C

-1.5 C

1.4 C

0 W/m

0.00 mm

19:15

1.3 C

985.2 hpa

95 %

8.0 km/h aus 118

19.3 km/h aus NW

0.6 C

-1.3 C

-1.2 C

1.2 C

0 W/m

0.25 mm

19:20

1.0 C

985.2 hpa

95 %

4.8 km/h aus 117

14.5 km/h aus WNW

0.3 C

-0.4 C

-0.3 C

0.9 C

0 W/m

0.25 mm

19:25

0.7 C

985.2 hpa

95 %

8.0 km/h aus 117

19.3 km/h aus WNW

0.0 C

-1.9 C

-1.9 C

0.7 C

0 W/m

0.25 mm

19:30

0.6 C

985.8 hpa

95 %

6.4 km/h aus 113

16.1 km/h aus NNW

-0.2 C

-1.6 C

-1.6 C

0.5 C

0 W/m

0.00 mm

19:35

0.5 C

985.8 hpa

95 %

6.4 km/h aus 114

20.9 km/h aus NW

-0.2 C

-1.7 C

-1.6 C

0.4 C

0 W/m

0.51 mm

19:40

0.4 C

985.8 hpa

95 %

6.4 km/h aus 116

16.1 km/h aus NW

-0.3 C

-1.8 C

-1.7 C

0.3 C

0 W/m

0.00 mm

19:45

0.3 C

986.5 hpa

95 %

6.4 km/h aus 117

14.5 km/h aus NW

-0.4 C

-1.8 C

-1.8 C

0.3 C

0 W/m

0.51 mm

19:50

0.3 C

986.5 hpa

95 %

9.7 km/h aus 117

20.9 km/h aus NW

-0.4 C

-2.9 C

-2.9 C

0.2 C

0 W/m

0.00 mm

19:55

0.3 C

986.5 hpa

95 %

8.0 km/h aus 117

22.5 km/h aus WNW

-0.4 C

-2.4 C

-2.4 C

0.2 C

0 W/m

0.51 mm

20:00

0.2 C

987.0 hpa

95 %

9.7 km/h aus 116

24.1 km/h aus NW

-0.5 C

-3.0 C

-2.9 C

0.2 C

0 W/m

0.00 mm

20:05

0.2 C

987.0 hpa

95 %

12.9 km/h aus 116

27.4 km/h aus WNW

-0.5 C

-3.8 C

-3.7 C

0.2 C

0 W/m

0.25 mm

20:10

0.2 C

987.0 hpa

95 %

11.3 km/h aus 114

25.7 km/h aus NW

-0.5 C

-3.4 C

-3.4 C

0.1 C

0 W/m

0.25 mm

20:15

0.2 C

987.9 hpa

95 %

12.9 km/h aus 115

27.4 km/h aus WNW

-0.5 C

-3.8 C

-3.8 C

0.1 C

0 W/m

0.00 mm

20:20

0.2 C

987.9 hpa

95 %

8.0 km/h aus 118

22.5 km/h aus WNW

-0.5 C

-2.6 C

-2.6 C

0.1 C

0 W/m

0.25 mm

20:25

0.2 C

987.9 hpa

95 %

12.9 km/h aus 117

27.4 km/h aus WNW

-0.5 C

-3.8 C

-3.8 C

0.1 C

0 W/m

0.25 mm

20:30

0.2 C

988.6 hpa

95 %

11.3 km/h aus 117

25.7 km/h aus NW

-0.5 C

-3.4 C

-3.4 C

0.1 C

0 W/m

0.00 mm

20:35

0.2 C

988.6 hpa

95 %

9.7 km/h aus 117

25.7 km/h aus NW

-0.5 C

-3.1 C

-3.0 C

0.1 C

0 W/m

0.25 mm

20:40

0.2 C

988.6 hpa

95 %

12.9 km/h aus 117

29.0 km/h aus WNW

-0.5 C

-3.8 C

-3.8 C

0.1 C

0 W/m

0.25 mm

20:45

0.2 C

989.2 hpa

95 %

12.9 km/h aus 113

22.5 km/h aus W

-0.5 C

-3.8 C

-3.8 C

0.1 C

0 W/m

0.00 mm

20:50

0.2 C

989.2 hpa

95 %

12.9 km/h aus 115

29.0 km/h aus W

-0.5 C

-3.8 C

-3.8 C

0.1 C

0 W/m

0.25 mm

20:55

0.2 C

989.2 hpa

95 %

9.7 km/h aus 116

25.7 km/h aus W

-0.5 C

-3.1 C

-3.0 C

0.1 C

0 W/m

0.25 mm

21:00

0.2 C

989.9 hpa

95 %

12.9 km/h aus 117

25.7 km/h aus WNW

-0.5 C

-3.8 C

-3.8 C

0.1 C

0 W/m

0.00 mm

21:05

0.2 C

989.9 hpa

95 %

11.3 km/h aus 117

24.1 km/h aus WNW

-0.5 C

-3.4 C

-3.4 C

0.1 C

0 W/m

0.25 mm

21:10

0.2 C

989.9 hpa

95 %

17.7 km/h aus 116

32.2 km/h aus WNW

-0.5 C

-4.7 C

-4.7 C

0.1 C

0 W/m

0.25 mm

21:15

0.2 C

990.6 hpa

95 %

12.9 km/h aus 117

25.7 km/h aus NW

-0.5 C

-3.8 C

-3.8 C

0.1 C

0 W/m

0.00 mm

21:20

0.2 C

990.6 hpa

95 %

16.1 km/h aus 117

29.0 km/h aus WNW

-0.5 C

-4.4 C

-4.4 C

0.1 C

0 W/m

0.00 mm

21:25

0.2 C

990.6 hpa

95 %

14.5 km/h aus 115

30.6 km/h aus WNW

-0.5 C

-4.2 C

-4.1 C

0.1 C

0 W/m

0.25 mm

21:30

0.2 C

991.2 hpa

95 %

12.9 km/h aus 115

29.0 km/h aus WNW

-0.5 C

-3.8 C

-3.8 C

0.1 C

0 W/m

0.25 mm

21:35

0.2 C

991.2 hpa

95 %

16.1 km/h aus 117

30.6 km/h aus NW

-0.5 C

-4.4 C

-4.4 C

0.1 C

0 W/m

0.00 mm

21:40

0.2 C

991.2 hpa

95 %

14.5 km/h aus 117

30.6 km/h aus WNW

-0.5 C

-4.2 C

-4.1 C

0.1 C

0 W/m

0.00 mm

21:45

0.2 C

992.1 hpa

95 %

17.7 km/h aus 117

33.8 km/h aus WNW

-0.5 C

-4.7 C

-4.7 C

0.1 C

0 W/m

0.25 mm

21:50

0.2 C

992.1 hpa

95 %

16.1 km/h aus 117

30.6 km/h aus NW

-0.5 C

-4.4 C

-4.4 C

0.1 C

0 W/m

0.25 mm

21:55

0.2 C

992.1 hpa

95 %

12.9 km/h aus 117

25.7 km/h aus WNW

-0.5 C

-3.8 C

-3.8 C

0.1 C

0 W/m

0.00 mm

22:00

0.2 C

992.7 hpa

95 %

14.5 km/h aus 116

30.6 km/h aus WNW

-0.5 C

-4.2 C

-4.1 C

0.1 C

0 W/m

0.00 mm

22:05

0.2 C

992.7 hpa

95 %

16.1 km/h aus 114

30.6 km/h aus WNW

-0.5 C

-4.4 C

-4.4 C

0.1 C

0 W/m

0.25 mm

22:10

0.2 C

992.7 hpa

95 %

12.9 km/h aus 115

25.7 km/h aus NW

-0.5 C

-3.8 C

-3.8 C

0.1 C

0 W/m

0.25 mm

22:15

0.1 C

993.4 hpa

95 %

17.7 km/h aus 116

30.6 km/h aus NW

-0.6 C

-4.8 C

-4.7 C

0.1 C

0 W/m

0.00 mm

22:20

0.1 C

993.4 hpa

95 %

11.3 km/h aus 116

27.4 km/h aus WNW

-0.6 C

-3.6 C

-3.5 C

0.1 C

0 W/m

0.25 mm

22:25

0.1 C

993.4 hpa

95 %

14.5 km/h aus 117

27.4 km/h aus WNW

-0.6 C

-4.2 C

-4.2 C

0.1 C

0 W/m

0.25 mm

22:30

0.1 C

993.9 hpa

95 %

11.3 km/h aus 118

25.7 km/h aus WNW

-0.6 C

-3.6 C

-3.5 C

0.1 C

0 W/m

0.25 mm

22:35

0.1 C

993.9 hpa

95 %

11.3 km/h aus 116

25.7 km/h aus NW

-0.6 C

-3.6 C

-3.5 C

0.1 C

0 W/m

0.25 mm

22:40

0.1 C

993.9 hpa

96 %

11.3 km/h aus 113

25.7 km/h aus WNW

-0.5 C

-3.6 C

-3.6 C

0.0 C

0 W/m

0.25 mm

22:45

0.1 C

994.3 hpa

96 %

11.3 km/h aus 113

19.3 km/h aus W

-0.5 C

-3.6 C

-3.5 C

0.1 C

0 W/m

0.25 mm

22:50

0.1 C

994.3 hpa

96 %

8.0 km/h aus 117

20.9 km/h aus NW

-0.5 C

-2.7 C

-2.6 C

0.1 C

0 W/m

0.25 mm

22:55

0.1 C

994.3 hpa

96 %

8.0 km/h aus 116

22.5 km/h aus WNW

-0.5 C

-2.7 C

-2.6 C

0.1 C

0 W/m

0.25 mm

23:00

0.1 C

994.8 hpa

96 %

9.7 km/h aus 117

22.5 km/h aus NW

-0.5 C

-3.1 C

-3.1 C

0.1 C

0 W/m

0.25 mm

23:05

0.1 C

994.8 hpa

96 %

9.7 km/h aus 117

25.7 km/h aus WNW

-0.5 C

-3.1 C

-3.1 C

0.1 C

0 W/m

0.51 mm

23:10

0.1 C

994.8 hpa

96 %

11.3 km/h aus 117

27.4 km/h aus WNW

-0.5 C

-3.6 C

-3.6 C

0.0 C

0 W/m

0.00 mm

23:15

0.1 C

995.3 hpa

96 %

12.9 km/h aus 116

29.0 km/h aus WNW

-0.5 C

-3.9 C

-3.9 C

0.0 C

0 W/m

0.25 mm

23:20

0.1 C

995.3 hpa

96 %

8.0 km/h aus 113

19.3 km/h aus WNW

-0.5 C

-2.7 C

-2.7 C

0.0 C

0 W/m

0.25 mm

23:25

0.1 C

995.3 hpa

96 %

8.0 km/h aus 115

20.9 km/h aus WSW

-0.5 C

-2.7 C

-2.7 C

0.0 C

0 W/m

0.25 mm

23:30

0.1 C

995.7 hpa

96 %

11.3 km/h aus 117

22.5 km/h aus WNW

-0.5 C

-3.6 C

-3.6 C

0.0 C

0 W/m

0.00 mm

23:35

0.1 C

995.7 hpa

96 %

9.7 km/h aus 117

17.7 km/h aus WNW

-0.5 C

-3.2 C

-3.2 C

0.0 C

0 W/m

0.25 mm

23:40

0.1 C

995.7 hpa

96 %

12.9 km/h aus 117

25.7 km/h aus WNW

-0.5 C

-3.9 C

-3.9 C

0.0 C

0 W/m

0.00 mm

23:45

0.1 C

996.0 hpa

96 %

11.3 km/h aus 117

25.7 km/h aus W

-0.5 C

-3.6 C

-3.6 C

0.0 C

0 W/m

0.00 mm

23:50

0.1 C

996.0 hpa

96 %

8.0 km/h aus 117

14.5 km/h aus WNW

-0.5 C

-2.7 C

-2.7 C

0.0 C

0 W/m

0.25 mm

23:55

0.1 C

996.0 hpa

96 %

6.4 km/h aus 114

16.1 km/h aus W

-0.5 C

-2.2 C

-2.1 C

0.0 C

0 W/m

0.25 mm